User: anonymous   Login
Location: Vale
(35.4830°N, 81.3830°W)
Time: 16:47:02
(UTC-04:00)
Language:

Oscar 11 - Orbit

View from above orbital plane
View from above orbital plane
View from above satellite
View from above satellite

Ground track
Ground track

The orbit data is extracted from the following two-line orbital elements,

1 14781U 84021B   16242.92758379 +.00000204 +00000-0 +31529-4 0  9991
2 14781 097.7424 292.6460 0009991 076.4103 283.8223 14.82782984726189
Epoch (UTC): 29 August 2016 22:15:43
Eccentricity: 0.0009991
inclination: 97.7424°
perigee height: 613 km
apogee height: 627 km
right ascension of ascending node: 292.6460°
argument of perigee: 76.4103°
revolutions per day: 14.82782984
mean anomaly at epoch: 283.8223°
orbit number at epoch: 72618

The dashed part of the orbit path shows where the satellite is in the earth's shadow,  

DLR